Wind_Speed
50 50 50 51 52 52 53 53 54 53 53 52 52 51 50 48 48 48 48 48 47 47 48 49 49 50 49 48 48 48 49 48 49 49 49 49 49 49
49 50 50 50 50 50 51 52 53 53 53 52 51 51 51 50 49 49 49 50 49 48 48 49 49 50 50 50 50 50 50 50 49 50 50 50 50 50
48 48 49 49 49 49 50 51 51 51 51 50 51 51 51 50 50 50 50 50 49 49 49 48 48 49 50 50 50 50 50 50 50 50 50 50 50 50
48 48 48 48 48 49 50 50 51 50 49 49 49 50 50 50 49 49 49 50 50 50 49 48 48 48 49 50 50 50 49 49 50 50 50 50 50 49
48 48 47 48 48 48 49 50 50 49 48 48 48 48 49 49 49 48 48 49 50 49 49 49 49 48 49 50 49 50 50 50 50 50 51 51 50 49
48 48 47 46 47 46 46 47 48 48 48 48 47 48 48 48 48 48 48 49 50 50 50 50 50 49 49 49 49 50 50 50 51 51 50 50 48 48
46 46 45 45 45 45 45 46 46 46 47 46 47 47 47 47 48 48 48 49 49 49 49 50 49 50 50 49 48 49 49 50 50 50 49 48 47 46
45 45 45 44 44 44 45 45 45 45 45 45 45 46 46 47 47 48 48 48 49 48 49 49 49 48 48 47 48 48 49 49 49 48 47 46 45 45
45 45 45 44 44 44 44 44 43 43 44 45 45 44 45 47 47 47 47 46 47 48 48 47 47 47 48 48 48 48 48 47 46 46 45 44 44 43
44 45 44 43 42 43 43 44 44 44 44 44 44 45 46 46 45 45 44 45 46 46 46 46 46 45 46 46 47 47 46 46 45 44 43 42 42 42
43 43 44 43 42 42 42 43 43 43 43 42 43 43 43 42 42 43 43 44 44 44 44 44 43 44 44 44 44 44 44 44 43 42 41 40 41 41
42 43 44 43 43 42 42 42 42 42 42 42 42 42 41 41 40 40 41 41 41 42 41 42 42 42 42 41 41 41 41 41 40 39 39 39 39 38
42 42 43 44 43 42 41 41 41 41 40 40 40 40 39 39 39 38 38 38 38 39 38 39 39 39 40 39 39 38 38 37 37 37 36 36 36 36
41 41 41 41 41 41 41 41 41 40 39 39 39 38 37 37 36 36 35 35 35 36 35 36 36 37 37 36 36 35 34 35 35 35 35 34 34 34
39 39 40 39 39 39 40 39 39 39 38 37 36 35 35 35 34 34 33 33 33 34 33 33 33 33 33 33 33 32 32 32 33 33 33 32 32 32
37 38 38 38 37 37 38 38 37 36 35 34 34 33 33 33 33 32 31 31 31 31 30 30 31 31 32 31 30 30 30 30 30 31 31 31 31 31
35 34 35 35 35 36 35 35 34 33 32 32 31 31 30 30 29 29 29 29 29 28 28 29 29 29 29 28 28 28 29 28 28 28 28 28 28 29
32 32 33 33 33 33 32 32 31 30 29 29 29 28 28 28 28 28 27 27 27 27 27 27 27 27 27 26 27 27 26 25 25 25 25 26 26 27
31 31 31 31 30 30 29 28 28 28 27 27 26 26 26 26 26 26 26 25 25 25 25 26 26 26 25 25 25 25 24 24 24 24 25 24 25 25
29 29 28 28 28 27 26 26 26 25 25 25 25 25 25 25 25 24 24 24 24 24 24 24 25 24 24 24 23 23 23 22 22 22 22 22 23 23
26 26 26 26 26 25 25 24 24 24 24 24 24 24 24 24 24 23 23 23 23 23 23 23 23 23 23 22 22 22 22 21 20 20 20 20 20 20
25 25 25 25 24 23 23 23 23 23 23 23 23 23 23 23 23 23 23 23 22 22 21 22 22 21 21 21 21 21 21 20 19 18 18 19 18 17
23 23 23 22 22 22 22 22 23 22 23 23 23 23 23 22 22 22 22 22 22 21 21 20 20 20 20 20 20 20 20 19 18 18 18 18 17 16
Wind_Direction
270 271 271 270 270 271 270 271 271 271 270 271 271 272 273 274 272 272 272 273 274 275 274 275 276 276 278 278 278 279 280 283 284 285 286 287 288 288
271 271 273 272 271 272 272 272 273 272 271 270 270 271 270 271 271 271 272 273 273 274 276 276 276 276 277 277 278 278 280 282 284 285 285 286 287 288
272 272 274 274 272 272 272 272 272 272 271 269 269 270 269 270 270 271 273 273 273 275 277 277 276 276 276 277 278 279 280 281 283 284 285 287 288 289
272 273 273 273 273 272 273 272 272 272 271 270 269 269 268 269 270 271 272 273 273 275 277 278 277 278 278 279 279 280 280 281 283 284 285 286 288 289
272 273 272 273 273 273 273 272 271 271 271 271 270 268 267 268 269 271 272 273 273 275 276 277 277 279 280 280 280 280 280 280 282 283 284 286 288 288
272 272 272 273 272 273 273 272 271 271 271 273 272 270 268 269 270 270 271 272 273 274 274 276 277 279 280 280 280 280 280 281 281 283 284 286 288 288
272 272 273 273 271 273 273 272 272 271 272 273 273 271 270 270 270 270 271 272 274 275 275 276 277 279 280 280 280 281 281 281 282 283 285 286 287 287
271 271 272 272 272 272 272 271 272 272 271 272 273 273 272 272 272 271 272 273 274 275 275 276 277 279 281 281 281 281 281 282 283 284 284 285 285 285
270 271 272 273 273 272 272 272 272 272 272 273 274 273 273 273 272 272 274 274 275 275 275 276 277 279 281 282 283 282 282 282 284 284 284 285 285 285
271 272 272 271 272 272 271 272 273 272 272 273 273 273 274 274 274 273 273 274 274 276 276 277 277 278 281 282 283 283 283 284 285 285 284 285 285 286
271 271 271 271 271 271 272 273 273 273 272 271 272 273 273 274 275 275 275 275 274 276 277 278 278 278 280 282 283 284 285 285 285 285 285 285 285 286
271 272 272 271 271 272 272 273 274 274 271 271 273 273 273 275 277 277 276 276 275 276 278 279 278 279 280 282 284 284 284 285 285 285 284 285 285 284
272 272 271 270 270 272 272 273 275 274 273 273 274 273 274 276 277 278 278 278 278 278 279 280 280 280 281 282 284 285 284 284 285 284 284 285 286 286
272 273 272 271 271 271 272 273 273 273 273 273 274 273 275 275 276 277 277 278 279 280 281 282 282 282 283 284 285 285 285 285 285 285 285 286 287 287
272 274 274 273 273 273 273 273 273 273 273 273 273 272 273 273 274 275 277 278 280 282 282 283 284 285 286 287 287 286 286 286 286 286 286 287 287 286
273 274 273 273 273 273 273 274 274 274 274 273 272 271 271 273 274 275 278 279 280 282 282 283 286 287 288 290 290 289 289 289 288 288 288 289 289 288
275 274 274 274 274 274 274 274 273 272 272 272 271 269 270 274 275 277 278 279 280 281 282 284 287 288 290 292 292 293 292 290 289 289 290 290 290 291
276 276 275 274 274 273 272 272 272 272 272 272 271 269 271 272 274 277 278 279 280 281 283 285 286 288 289 292 293 294 294 294 291 290 290 292 292 291
277 277 276 274 273 272 271 271 272 271 271 272 270 270 271 272 274 277 278 279 279 281 283 284 285 287 289 291 293 293 295 294 291 293 295 295 294 293
278 278 276 273 272 270 269 270 270 270 271 271 269 270 271 273 275 276 277 278 281 282 281 282 285 288 288 291 293 294 296 295 295 295 296 296 295 295
275 274 272 272 271 269 268 267 268 268 270 270 269 269 271 273 275 275 276 279 280 281 282 284 286 287 288 291 293 295 296 297 296 297 297 295 296 297
272 271 272 271 270 269 266 264 264 267 270 271 270 271 273 274 274 274 276 278 278 279 281 283 284 286 289 291 293 295 296 297 297 298 299 297 297 298
273 272 273 271 270 269 266 264 265 267 270 271 272 272 274 275 275 275 276 277 277 277 279 281 283 287 290 291 294 296 297 297 298 301 301 300 298 297
Height
5654 5654 5654 5655 5655 5655 5656 5656 5657 5658 5661 5661 5660 5659 5658 5658 5657 5656 5656 5655 5655 5654 5653 5652 5651 5650 5649 5648 5647 5646 5644 5643 5641 5639 5637 5634 5631 5628
5641 5642 5642 5642 5642 5642 5642 5642 5641 5642 5645 5647 5646 5645 5644 5644 5644 5643 5643 5642 5641 5641 5640 5639 5638 5637 5635 5634 5633 5632 5631 5630 5628 5626 5623 5621 5618 5615
5629 5629 5629 5629 5629 5629 5628 5628 5628 5628 5629 5632 5631 5631 5630 5630 5630 5630 5629 5628 5628 5627 5626 5625 5624 5623 5622 5621 5620 5618 5617 5616 5615 5613 5610 5608 5605 5602
5617 5617 5616 5616 5616 5616 5615 5615 5614 5614 5615 5617 5617 5617 5617 5617 5617 5616 5616 5615 5615 5614 5613 5612 5611 5610 5609 5608 5606 5605 5604 5602 5601 5599 5597 5595 5592 5588
5604 5604 5603 5603 5603 5602 5602 5601 5601 5601 5601 5602 5603 5603 5603 5603 5603 5603 5603 5603 5602 5601 5600 5599 5598 5596 5596 5594 5592 5591 5590 5589 5588 5586 5583 5581 5578 5575
5591 5591 5591 5591 5590 5590 5589 5589 5588 5588 5589 5589 5590 5590 5590 5590 5590 5590 5591 5590 5589 5588 5587 5586 5585 5583 5582 5580 5579 5578 5576 5575 5573 5572 5569 5567 5565 5562
5578 5578 5578 5578 5577 5577 5576 5576 5576 5576 5577 5577 5577 5578 5578 5578 5578 5577 5577 5577 5577 5575 5575 5574 5573 5571 5569 5567 5566 5564 5563 5561 5559 5557 5555 5553 5551 5548
5566 5566 5566 5566 5565 5564 5564 5564 5564 5564 5565 5565 5565 5565 5565 5565 5564 5564 5564 5564 5565 5565 5562 5561 5560 5559 5557 5555 5553 5551 5549 5547 5546 5544 5542 5539 5537 5535
5554 5554 5554 5554 5553 5553 5552 5552 5552 5552 5553 5553 5553 5553 5553 5553 5552 5552 5551 5551 5551 5551 5549 5549 5548 5546 5544 5542 5540 5538 5536 5534 5532 5530 5528 5526 5524 5522
5541 5542 5542 5542 5541 5541 5541 5541 5541 5541 5541 5541 5541 5541 5541 5540 5539 5539 5539 5539 5539 5538 5537 5536 5535 5534 5531 5529 5527 5524 5523 5521 5519 5517 5515 5514 5512 5510
5529 5529 5529 5530 5530 5529 5529 5530 5530 5530 5529 5529 5530 5529 5529 5528 5527 5527 5527 5527 5527 5527 5526 5525 5523 5522 5520 5517 5515 5512 5510 5508 5507 5505 5503 5502 5500 5498
5517 5518 5518 5518 5518 5518 5518 5519 5519 5520 5519 5519 5519 5519 5518 5517 5517 5516 5516 5515 5515 5516 5515 5513 5511 5509 5509 5507 5504 5501 5498 5496 5495 5494 5492 5490 5488 5486
5505 5506 5506 5506 5506 5507 5507 5508 5508 5509 5508 5508 5508 5508 5508 5507 5507 5506 5505 5504 5504 5504 5504 5502 5500 5498 5496 5496 5494 5490 5488 5486 5484 5483 5481 5479 5477 5475
5494 5494 5494 5495 5495 5496 5496 5497 5497 5497 5497 5497 5497 5497 5497 5497 5497 5496 5495 5495 5494 5494 5493 5491 5490 5489 5487 5486 5484 5481 5479 5476 5475 5473 5471 5469 5467 5465
5482 5483 5483 5483 5484 5485 5486 5485 5486 5486 5486 5486 5487 5487 5487 5487 5487 5486 5486 5485 5485 5484 5483 5481 5481 5479 5477 5476 5474 5472 5470 5468 5465 5463 5461 5459 5458 5456
5472 5472 5473 5473 5474 5474 5475 5474 5475 5475 5475 5476 5476 5477 5477 5477 5477 5477 5477 5477 5476 5476 5474 5473 5472 5470 5469 5467 5465 5463 5461 5459 5457 5454 5452 5451 5449 5447
5463 5463 5463 5463 5464 5464 5465 5464 5464 5465 5465 5466 5466 5467 5468 5469 5469 5469 5469 5468 5468 5467 5467 5465 5463 5462 5460 5459 5457 5456 5453 5451 5449 5446 5444 5443 5440 5438
5453 5453 5453 5454 5454 5455 5455 5455 5456 5456 5456 5457 5458 5459 5460 5461 5461 5461 5461 5461 5460 5459 5459 5457 5456 5455 5453 5451 5450 5448 5446 5444 5442 5439 5437 5435 5433 5431
5444 5444 5444 5445 5445 5446 5446 5447 5447 5448 5448 5449 5450 5451 5452 5453 5453 5453 5453 5453 5452 5452 5451 5450 5449 5448 5447 5446 5444 5441 5439 5437 5435 5433 5430 5428 5426 5424
5436 5436 5436 5436 5437 5438 5438 5439 5439 5440 5441 5441 5442 5443 5444 5445 5446 5446 5446 5445 5445 5444 5444 5443 5442 5441 5440 5439 5437 5435 5433 5431 5429 5426 5424 5421 5419 5418
5428 5428 5428 5429 5429 5430 5430 5431 5432 5433 5434 5434 5435 5436 5437 5438 5438 5438 5438 5438 5438 5437 5437 5437 5435 5434 5433 5432 5431 5429 5427 5424 5422 5420 5418 5416 5414 5412
5420 5420 5421 5421 5422 5422 5423 5424 5425 5426 5427 5427 5428 5429 5430 5430 5431 5431 5431 5431 5431 5431 5431 5430 5429 5428 5427 5426 5424 5423 5421 5419 5416 5414 5412 5410 5409 5407
5413 5413 5414 5414 5415 5415 5416 5417 5418 5419 5420 5421 5422 5422 5423 5424 5424 5424 5424 5424 5424 5424 5424 5423 5423 5422 5421 5420 5419 5417 5415 5413 5412 5410 5408 5406 5404 5403